SCP
-0 0 0 0 0 0 0 0 -0 0 0 0 0 -0 0 -0 -0 0 0 0 0 -0 -0 -0 -0 -0 -0 -0 -0 -0 -0 -0 0 0 0 0 0 0 0 0 0 0 0 0 0 0 0 0 0
-0 0 0 0 0 0 0 0 0 -0 -0 0 0 0 0 0 -0 0 0 0 0 -0 -0 -0 -0 -0 -0 -0 -0 -0 -0 -0 -0 -0 0 0 0 0 0 0 0 0 0 0 0 0 0 0 0
-0 -0 0 -0 -0 -0 -0 0 0 0 0 0 0 0 -0 0 0 0 0 -0 -0 -0 -0 -0 -0 -0 -0 -0 -0 -0 -0 -0 -0 -0 -0 0 0 0 0 0 0 0 0 0 0 0 0 0 0
0 0 0 -0 -0 -0 -0 0 0 -0 0 0 0 -0 0 0 0 0 0 -0 -0 -0 -0 -0 -0 0 -0 -0 -0 -0 -0 -0 -0 -0 -0 0 0 0 0 0 0 0 0 0 0 0 0 0 0
0 0 0 0 -0 0 -0 0 0 0 0 0 0 0 0 0 0 0 0 0 -0 -0 -0 -0 -0 0 0 0 0 0 0 0 0 0 0 0 0 0 0 0 0 0 0 0 0 0 0 0 0
0 0 0 0 0 0 0 0 0 0 0 0 0 0 0 0 0 0 0 0 0 -0 -0 -0 -0 0 0 0 0 0 0 0 0 0 0 0 0 0 0 0 0 0 0 0 0 0 0 0 0
0 0 0 0 0 0 0 0 0 0 0 0 0 0 0 0 0 0 0 0 0 0 0 0 -0 -0 0 0 0 0 0 0 0 0 0 0 0 0 0 0 0 0 0 0 0 0 0 0 0
0 0 0 0 0 0 0 0 0 0 0 0 0 0 0 0 0 0 0 0 0 0 0 0 0 -0 -0 -0 0 0 0 0 0 0 0 0 0 0 0 0 0 0 0 0 0 0 0 0 0
0 0 0 0 0 0 0 0 0 0 0 0 0 0 0 0 0 0 0 0 0 0 0 0 0 0 0 0 0 0 0 0 0 0 0 0 0 0 0 0 0 0 0 0 0 0 0 0 0
0 0 0 0 0 0 0 0 0 0 0 0 0 0 0 0 0 0 0 0 0 0 0 0 0 0 0 0 0 0 0 0 0 0 0 0 0 0 0 0 0 0 0 0 0 0 0 0 0
0 0 0 0 0 0 0 0 0 0 0 0 0 0 0 0 0 0 0 0 0 0 0 0 0 0 0 0 0 0 0 0 0 0 0 0 0 0 0 0 0 0 0 0 0 0 0 0 0
0 0 0 0 0 0 0 0 0 0 -0 0 0 -0 0 0 0 0 0 0 0 0 0 0 0 0 0 0 0 0 0 0 0 0 0 0 0 0 0 0 0 0 0 0 0 0 0 0 0
0 0 0 0 0 0 0 0 0 0 0 0 0 0 0 0 0 0 0 0 0 0 0 0 0 0 0 0 0 0 0 0 0 0 0 0 0 0 0 0 0 0 0 0 0 0 0 0 0
0 0 0 0 0 0 0 0 0 0 0 0 0 0 0 0 0 0 0 0 0 0 0 0 0 0 0 0 0 0 0 0 0 0 0 0 0 0 0 0 0 0 0 0 0 0 0 0 0
0 0 0 0 0 0 0 0 0 0 0 0 0 0 0 0 0 0 0 0 0 0 0 0 0 0 0 0 0 0 0 0 0 0 0 0 0 0 0 0 0 0 0 0 0 0 0 0 0
0 0 0 0 0 0 0 0 0 0 0 0 0 0 0 0 0 0 0 0 0 0 0 0 0 0 0 0 0 0 0 0 0 0 0 0 0 0 0 0 0 0 0 0 0 0 0 0 0
0 0 0 0 0 0 0 0 0 0 0 0 0 0 0 0 0 0 0 0 0 0 0 0 0 0 0 0 0 0 0 0 0 0 0 0 0 0 0 0 0 0 0 0 0 0 0 0 0
0 0 0 0 0 0 0 0 0 0 0 0 0 0 0 0 0 0 0 0 0 0 0 0 0 0 0 0 0 0 0 0 0 0 0 0 0 0 0 0 0 0 0 0 0 0 0 0 0
0 0 0 0 0 0 0 0 0 0 0 0 0 0 0 0 0 0 0 0 0 0 0 0 0 0 0 0 0 0 0 0 0 0 0 0 0 0 0 0 0 0 0 0 0 0 0 0 0
0 0 0 0 0 0 0 0 0 -0 -0 0 0 0 0 0 0 0 0 0 0 0 0 0 0 0 0 0 0 0 0 0 0 0 0 0 0 0 0 0 0 0 0 0 0 0 0 0 0
0 0 0 0 0 0 0 0 0 0 0 0 0 0 0 0 0 0 0 0 0 0 0 0 0 0 0 0 0 0 0 0 0 0 0 0 0 0 0 0 0 0 0 0 0 0 0 0 0
0 0 0 0 0 0 0 0 0 -0 -0 0 0 0 0 0 0 0 0 0 0 0 0 0 0 0 0 0 0 0 0 0 0 0 0 0 0 0 0 0 0 0 0 0 0 0 0 0 0
0 0 0 0 0 0 0 0 0 0 0 0 0 0 0 0 0 0 0 0 0 0 0 0 0 0 0 0 -0 0 0 0 0 0 0 0 0 0 0 0 0 0 0 0 0 0 0 0 0
0 0 0 0 0 0 0 0 0 0 0 0 0 0 0 0 0 0 0 0 0 0 0 0 0 0 0 0 0 0 -0 0 0 0 0 0 0 0 0 0 0 0 0 0 0 0 0 0 0
0 0 0 0 0 0 0 0 0 0 0 0 0 0 0 0 0 0 0 0 0 0 0 0 0 0 0 0 0 0 0 0 0 0 0 0 0 0 0 0 0 0 0 0 0 0 0 0 0
0 0 0 0 0 0 0 0 0 0 0 0 0 0 0 0 0 0 0 0 0 0 -0 -0 0 0 0 0 0 0 0 0 0 0 0 0 0 0 0 0 0 0 0 0 0 0 0 0 0
0 0 0 0 0 0 0 0 0 0 0 0 0 0 0 0 0 0 0 -0 -0 -0 -0 -0 -0 -0 0 0 0 0 0 0 0 0 0 0 0 0 0 0 0 0 0 0 0 0 0 0 0
0 0 0 0 0 0 0 0 0 0 0 0 0 0 0 0 0 0 -0 -0 -0 -0 -0 -0 -0 -0 -0 -0 0 0 0 0 0 0 0 0 0 0 0 0 0 0 0 0 0 0 0 0 0
0 0 0 0 0 0 0 0 0 0 0 0 0 0 0 0 0 -0 -0 -0 -0 -0 -0 -0 -0 -0 0 0 0 0 0 0 0 0 0 0 0 0 0 0 0 0 0 0 0 0 0 0 0
0 0 0 0 0 0 0 0 0 0 0 0 0 0 0 0 -0 -0 -0 -0 -0 -0 0 0 0 0 0 0 -0 -0 0 0 0 0 0 0 0 0 0 0 0 0 0 0 0 0 0 0 0
Wind_Speed_500mb
11 11 13 10 11 7 9 6 9 7 4 7 6 12 20 20 16 9 5 7 11 28 37 40 40 40 39 36 33 30 27 24 21 21 18 19 20 20 17 16 14 12 14 8 7 6 7 4 2
7 7 7 11 9 10 14 8 2 11 11 9 10 12 13 12 6 6 7 9 13 25 39 42 42 41 41 37 34 32 30 27 24 23 22 23 25 26 21 19 19 19 20 14 12 11 10 7 7
2 1 9 7 7 11 11 6 8 9 10 9 9 6 14 7 6 2 10 9 15 24 40 41 45 42 41 40 38 36 34 31 28 24 24 25 29 26 22 20 21 22 23 17 17 16 16 14 13
2 4 9 10 12 12 9 18 18 17 2 6 8 16 7 12 3 13 11 11 18 26 35 41 42 46 42 41 39 38 37 33 30 26 25 22 22 19 18 18 20 24 23 19 20 20 17 16 15
2 7 9 9 15 8 11 14 13 13 7 6 6 8 12 15 17 21 21 16 18 29 35 40 40 46 47 45 43 41 38 36 36 36 34 25 22 20 20 21 22 22 20 20 20 16 16 15 12
9 8 11 13 9 9 6 5 9 13 8 6 8 19 14 13 7 11 15 17 20 29 35 40 41 45 46 46 45 45 42 43 43 41 32 27 24 20 20 21 21 21 20 19 17 13 9 7 5
12 9 17 17 19 13 3 1 8 9 10 13 8 13 11 12 12 11 17 18 22 29 35 40 41 45 47 47 47 47 47 50 50 47 34 32 28 23 23 24 22 22 20 17 14 12 10 8 7
8 7 13 9 11 18 6 5 8 14 19 6 7 10 11 6 22 30 25 23 26 30 36 41 43 47 51 51 52 49 49 52 53 51 43 38 31 27 26 26 25 24 23 20 18 16 13 10 9
5 11 16 19 14 7 7 11 8 12 22 26 21 30 26 40 39 37 34 32 33 36 40 43 46 47 50 53 55 56 56 55 56 55 47 43 36 35 35 32 30 28 25 23 20 17 14 12 11
15 17 19 13 19 18 23 21 28 26 31 39 39 42 32 44 40 39 38 37 40 43 45 47 49 50 51 52 54 59 61 62 62 59 53 49 45 42 40 39 36 34 31 28 25 21 19 17 15
13 22 27 30 29 34 31 32 33 30 36 40 34 25 34 32 38 43 43 41 39 41 47 51 53 54 56 58 59 60 62 66 65 64 59 53 51 50 46 45 43 40 37 35 31 27 24 20 17
21 34 39 46 28 18 29 41 32 37 65 49 52 51 46 43 45 43 43 41 41 42 47 52 56 60 61 64 66 64 62 66 69 67 63 61 59 57 51 51 48 46 42 40 35 31 26 23 20
31 36 41 37 39 38 42 56 43 60 59 61 55 51 47 45 45 39 38 41 43 48 51 56 58 63 64 68 69 67 67 66 66 63 68 66 63 61 56 57 53 50 46 46 39 36 32 28 24
29 29 40 47 44 39 35 54 43 61 45 48 39 41 40 41 43 36 37 37 43 48 52 55 60 60 65 70 71 73 72 72 70 70 70 68 66 65 63 62 59 55 53 49 45 40 37 34 30
25 29 34 46 51 28 15 37 32 49 33 40 43 42 44 45 44 42 42 44 45 53 47 53 52 57 61 68 73 75 76 75 76 74 75 73 71 72 68 67 65 61 59 56 53 49 45 39 34
18 28 30 25 4 4 16 36 37 27 24 35 43 59 62 62 59 53 52 52 48 43 49 52 52 56 58 64 71 77 81 83 80 79 79 79 76 77 75 73 71 67 64 61 59 55 50 45 40
29 32 40 33 35 6 23 25 27 45 53 56 70 70 61 62 56 42 35 34 34 36 36 44 53 62 66 70 72 74 76 82 82 80 80 79 79 79 81 78 75 73 70 68 65 61 56 51 46
35 36 39 29 21 22 31 40 40 61 56 62 70 64 51 46 33 22 24 22 21 21 24 28 34 44 52 59 65 71 69 75 75 75 78 79 81 80 82 82 80 78 75 74 71 66 61 56 51
45 46 49 42 38 45 47 48 39 53 61 67 57 49 33 21 20 28 32 28 24 16 10 13 21 30 38 44 54 61 70 71 71 75 75 76 80 81 82 86 85 84 80 77 74 71 67 61 56
36 45 47 43 35 31 37 47 50 49 55 55 44 33 12 15 26 33 35 32 34 24 13 7 4 16 25 27 33 36 35 48 55 64 69 76 80 84 85 87 90 90 84 81 80 78 76 69 67
41 38 44 49 40 37 39 41 27 17 35 27 17 19 39 33 32 36 40 46 45 45 39 24 14 6 4 15 24 27 34 40 33 48 57 69 73 82 86 89 92 93 91 91 88 87 86 81 76
39 33 29 29 25 23 10 18 30 38 26 23 34 39 36 35 34 34 36 44 48 50 50 52 45 33 22 11 7 13 16 24 23 32 40 53 60 69 78 84 88 96 97 97 96 93 91 86 85
29 11 17 18 22 30 26 18 9 10 15 31 30 32 35 36 35 38 40 41 47 49 49 45 43 40 37 28 14 8 14 18 20 21 31 39 45 49 54 70 84 96 102 101 100 99 100 98 93
10 20 28 31 15 16 26 26 12 5 16 26 27 27 29 29 32 35 38 44 48 47 47 46 45 45 41 33 26 18 12 13 18 21 30 36 39 45 45 53 67 84 99 104 104 103 103 102 100
14 15 12 10 13 15 10 13 19 22 14 18 21 22 24 25 28 32 35 36 40 43 42 42 43 47 45 41 36 31 26 21 18 16 25 28 32 39 40 43 52 61 80 97 103 106 108 106 106
12 5 6 11 15 29 29 18 20 5 27 28 24 24 22 21 21 23 23 24 27 31 35 39 42 40 40 40 41 39 36 33 26 24 24 24 29 34 40 43 43 50 55 70 91 104 107 108 108
8 9 10 7 16 10 19 41 38 28 25 22 22 20 18 18 21 24 24 25 27 29 33 39 42 41 38 35 35 37 41 42 40 36 30 29 30 34 40 44 48 48 49 56 65 87 104 108 109
11 8 9 9 12 29 27 36 25 17 10 14 12 17 20 22 24 23 24 25 27 30 34 42 47 44 42 39 35 33 31 33 37 43 44 40 34 34 38 43 46 49 49 53 60 69 83 98 108
7 9 9 7 10 20 25 17 10 21 10 16 9 9 13 16 19 20 20 21 28 32 37 38 41 46 50 48 43 38 38 38 36 36 38 43 47 47 40 37 43 47 52 51 58 69 72 80 92
27 32 33 18 16 16 22 25 16 19 15 6 4 8 10 11 13 17 20 23 25 33 38 43 43 44 47 48 48 49 46 42 41 41 40 42 43 44 46 47 42 44 50 52 56 65 71 77 84
Wind_Direction_500mb
298 315 326 299 265 228 272 77 347 335 309 22 314 306 334 308 308 358 3 297 206 194 201 200 201 199 197 196 198 201 207 212 213 214 217 218 213 218 225 227 220 231 254 286 288 284 288 294 232
295 314 304 285 263 273 73 61 25 22 357 315 289 276 277 304 325 283 327 278 218 197 198 202 205 204 203 201 203 205 209 212 216 224 234 240 239 241 235 226 223 238 250 262 273 274 268 269 273
310 259 275 289 291 340 356 55 7 334 314 278 296 263 302 311 300 275 279 286 219 202 198 205 209 208 207 207 207 211 216 220 226 232 242 246 248 242 237 233 232 241 258 268 271 268 271 271 264
266 236 230 258 301 322 290 321 339 314 110 232 282 274 238 257 271 249 284 284 215 208 203 212 214 214 216 216 215 216 217 220 225 231 218 227 236 230 227 236 243 247 258 265 271 277 278 273 267
265 246 260 251 283 282 307 298 307 293 286 251 237 287 283 289 279 277 273 266 227 215 209 218 215 218 221 221 221 219 215 218 225 230 227 238 242 239 240 245 249 257 261 264 265 269 272 271 267
239 285 248 270 334 313 315 343 275 273 284 255 250 273 287 268 286 308 293 256 233 221 221 220 216 216 221 226 224 221 218 213 222 228 236 246 249 244 238 242 244 248 253 257 263 259 247 242 242
284 269 284 297 291 292 272 237 240 308 285 274 262 276 287 263 263 288 300 268 243 225 227 222 220 218 220 222 224 224 216 215 223 231 235 248 246 239 235 233 232 237 243 246 246 239 234 237 245
273 270 270 255 294 298 168 211 274 281 302 269 252 259 274 202 275 294 281 267 250 234 235 226 225 222 221 220 220 222 219 219 224 233 235 243 241 238 236 233 232 230 229 223 220 224 228 235 249
230 250 261 267 267 284 170 268 198 271 273 266 256 270 294 285 287 285 274 260 252 243 237 232 229 227 224 223 224 223 223 223 226 231 235 236 234 229 229 226 227 226 225 222 219 220 226 236 243
230 250 275 286 283 273 294 281 291 289 272 273 268 267 277 277 281 276 267 260 255 250 247 238 234 231 227 224 226 227 225 226 228 232 235 231 229 230 227 222 222 221 219 218 218 219 222 226 231
222 248 269 284 277 282 283 284 277 263 272 272 283 289 292 284 271 273 266 254 248 259 247 245 238 234 231 228 229 232 229 228 228 228 230 229 227 227 224 223 219 219 215 215 215 217 221 225 229
262 256 270 281 290 282 272 285 271 262 265 280 281 286 285 275 269 267 267 260 251 242 245 247 241 237 234 232 232 234 232 235 231 231 228 230 226 227 225 224 222 221 216 219 218 220 223 225 230
247 272 275 279 275 270 277 271 268 270 281 283 282 280 274 271 271 263 261 267 261 250 241 243 245 240 238 236 234 235 232 232 238 230 230 230 228 230 228 226 226 224 220 221 220 222 224 226 228
295 293 281 278 273 267 262 273 282 271 282 285 282 282 279 273 273 267 258 270 276 267 253 247 245 244 240 240 238 239 237 236 236 234 235 236 233 233 231 229 227 226 225 224 224 224 224 225 226
280 293 293 280 268 257 270 272 248 277 272 275 289 289 291 287 282 274 276 273 269 272 268 250 250 249 244 244 245 240 240 237 238 237 237 238 234 235 235 233 232 230 228 225 224 224 225 227 227
272 272 277 289 3 206 195 277 293 313 321 289 281 289 290 287 283 284 282 275 269 258 257 255 250 249 251 249 248 244 241 243 240 240 240 240 236 235 235 235 234 233 232 229 228 227 226 226 227
249 269 281 292 302 292 212 277 290 304 299 289 285 287 293 293 294 295 291 286 277 266 253 257 253 252 251 248 242 243 242 242 242 240 241 241 239 235 236 236 236 235 234 232 230 229 228 227 227
278 283 294 285 282 248 260 262 277 284 284 277 276 287 296 297 311 341 334 324 307 273 255 240 245 253 251 247 242 240 242 242 241 241 241 242 241 238 237 238 237 236 234 231 230 230 227 227 227
277 284 282 283 288 291 289 291 291 291 285 270 282 288 294 314 27 37 28 24 25 11 343 260 245 249 246 241 236 238 241 244 242 239 241 241 244 242 238 238 238 238 238 237 235 232 229 226 226
281 280 281 284 281 290 295 290 295 280 276 280 286 296 323 72 53 38 35 39 35 28 14 12 281 245 255 235 241 237 239 243 248 247 243 242 242 243 240 238 238 241 240 238 236 233 230 225 228
266 275 284 291 305 300 289 285 266 268 278 303 349 93 84 70 56 44 43 47 53 47 38 30 29 32 261 258 248 244 229 240 244 248 246 245 245 247 246 243 241 242 241 241 240 236 234 232 230
282 294 309 306 311 297 18 288 301 277 270 94 75 76 63 56 58 53 50 46 46 51 56 55 53 50 48 34 308 263 258 263 261 259 257 254 256 253 251 249 244 244 243 241 241 239 238 234 235
279 347 316 299 278 284 273 254 277 264 250 114 92 65 59 56 44 40 42 44 46 46 47 47 46 47 45 44 52 5 312 288 261 260 269 269 268 267 261 258 251 245 244 243 243 241 237 236 237
315 286 276 261 273 261 266 245 286 42 33 100 94 77 67 52 47 46 35 34 37 39 37 35 36 39 38 32 22 17 347 314 292 274 283 281 284 278 270 264 257 251 248 246 245 244 241 239 238
231 257 291 268 215 264 91 330 256 302 97 126 122 99 83 70 57 43 43 36 31 34 38 36 36 33 28 27 23 16 359 340 316 301 297 292 286 287 286 276 272 264 256 251 248 246 245 242 239
194 305 221 275 284 301 311 270 269 98 110 110 109 102 87 67 53 50 39 35 29 24 23 23 33 30 21 16 13 12 11 4 345 326 309 290 280 285 289 284 277 275 269 262 255 250 248 246 244
117 218 225 250 250 265 254 267 271 239 136 130 118 100 78 63 50 31 26 23 23 18 17 21 22 19 15 13 6 3 359 357 358 350 336 318 304 291 281 279 283 278 274 268 261 256 252 249 248
217 341 233 177 263 266 262 269 257 166 176 130 74 58 37 25 31 30 24 19 20 18 15 11 12 8 9 8 4 360 355 350 348 346 347 347 332 313 299 291 285 282 277 270 266 260 256 252 251
225 239 219 292 239 258 268 254 234 354 11 124 90 37 19 13 17 15 15 18 4 5 8 8 6 1 0 0 0 359 356 354 350 343 336 333 335 337 329 308 295 288 283 275 271 266 262 258 254
278 266 261 242 232 223 254 264 3 49 91 65 352 341 357 3 10 14 10 12 12 2 356 360 356 352 354 356 355 353 352 352 348 345 344 338 330 324 324 328 324 304 293 283 274 270 268 262 258
Wind_Speed_850mb
11 11 13 10 11 7 9 6 9 7 4 7 6 12 20 20 16 9 5 7 11 28 37 40 40 40 39 36 33 30 27 24 21 21 18 19 20 20 17 16 14 12 14 8 7 6 7 4 2
7 7 7 11 9 10 14 8 2 11 11 9 10 12 13 12 6 6 7 9 13 25 39 42 42 41 41 37 34 32 30 27 24 23 22 23 25 26 21 19 19 19 20 14 12 11 10 7 7
2 1 9 7 7 11 11 6 8 9 10 9 9 6 14 7 6 2 10 9 15 24 40 41 45 42 41 40 38 36 34 31 28 24 24 25 29 26 22 20 21 22 23 17 17 16 16 14 13
2 4 9 10 12 12 9 18 18 17 2 6 8 16 7 12 3 13 11 11 18 26 35 41 42 46 42 41 39 38 37 33 30 26 25 22 22 19 18 18 20 24 23 19 20 20 17 16 15
2 7 9 9 15 8 11 14 13 13 7 6 6 8 12 15 17 21 21 16 18 29 35 40 40 46 47 45 43 41 38 36 36 36 34 25 22 20 20 21 22 22 20 20 20 16 16 15 12
9 8 11 13 9 9 6 5 9 13 8 6 8 19 14 13 7 11 15 17 20 29 35 40 41 45 46 46 45 45 42 43 43 41 32 27 24 20 20 21 21 21 20 19 17 13 9 7 5
12 9 17 17 19 13 3 1 8 9 10 13 8 13 11 12 12 11 17 18 22 29 35 40 41 45 47 47 47 47 47 50 50 47 34 32 28 23 23 24 22 22 20 17 14 12 10 8 7
8 7 13 9 11 18 6 5 8 14 19 6 7 10 11 6 22 30 25 23 26 30 36 41 43 47 51 51 52 49 49 52 53 51 43 38 31 27 26 26 25 24 23 20 18 16 13 10 9
5 11 16 19 14 7 7 11 8 12 22 26 21 30 26 40 39 37 34 32 33 36 40 43 46 47 50 53 55 56 56 55 56 55 47 43 36 35 35 32 30 28 25 23 20 17 14 12 11
15 17 19 13 19 18 23 21 28 26 31 39 39 42 32 44 40 39 38 37 40 43 45 47 49 50 51 52 54 59 61 62 62 59 53 49 45 42 40 39 36 34 31 28 25 21 19 17 15
13 22 27 30 29 34 31 32 33 30 36 40 34 25 34 32 38 43 43 41 39 41 47 51 53 54 56 58 59 60 62 66 65 64 59 53 51 50 46 45 43 40 37 35 31 27 24 20 17
21 34 39 46 28 18 29 41 32 37 65 49 52 51 46 43 45 43 43 41 41 42 47 52 56 60 61 64 66 64 62 66 69 67 63 61 59 57 51 51 48 46 42 40 35 31 26 23 20
31 36 41 37 39 38 42 56 43 60 59 61 55 51 47 45 45 39 38 41 43 48 51 56 58 63 64 68 69 67 67 66 66 63 68 66 63 61 56 57 53 50 46 46 39 36 32 28 24
29 29 40 47 44 39 35 54 43 61 45 48 39 41 40 41 43 36 37 37 43 48 52 55 60 60 65 70 71 73 72 72 70 70 70 68 66 65 63 62 59 55 53 49 45 40 37 34 30
25 29 34 46 51 28 15 37 32 49 33 40 43 42 44 45 44 42 42 44 45 53 47 53 52 57 61 68 73 75 76 75 76 74 75 73 71 72 68 67 65 61 59 56 53 49 45 39 34
18 28 30 25 4 4 16 36 37 27 24 35 43 59 62 62 59 53 52 52 48 43 49 52 52 56 58 64 71 77 81 83 80 79 79 79 76 77 75 73 71 67 64 61 59 55 50 45 40
29 32 40 33 35 6 23 25 27 45 53 56 70 70 61 62 56 42 35 34 34 36 36 44 53 62 66 70 72 74 76 82 82 80 80 79 79 79 81 78 75 73 70 68 65 61 56 51 46
35 36 39 29 21 22 31 40 40 61 56 62 70 64 51 46 33 22 24 22 21 21 24 28 34 44 52 59 65 71 69 75 75 75 78 79 81 80 82 82 80 78 75 74 71 66 61 56 51
45 46 49 42 38 45 47 48 39 53 61 67 57 49 33 21 20 28 32 28 24 16 10 13 21 30 38 44 54 61 70 71 71 75 75 76 80 81 82 86 85 84 80 77 74 71 67 61 56
36 45 47 43 35 31 37 47 50 49 55 55 44 33 12 15 26 33 35 32 34 24 13 7 4 16 25 27 33 36 35 48 55 64 69 76 80 84 85 87 90 90 84 81 80 78 76 69 67
41 38 44 49 40 37 39 41 27 17 35 27 17 19 39 33 32 36 40 46 45 45 39 24 14 6 4 15 24 27 34 40 33 48 57 69 73 82 86 89 92 93 91 91 88 87 86 81 76
39 33 29 29 25 23 10 18 30 38 26 23 34 39 36 35 34 34 36 44 48 50 50 52 45 33 22 11 7 13 16 24 23 32 40 53 60 69 78 84 88 96 97 97 96 93 91 86 85
29 11 17 18 22 30 26 18 9 10 15 31 30 32 35 36 35 38 40 41 47 49 49 45 43 40 37 28 14 8 14 18 20 21 31 39 45 49 54 70 84 96 102 101 100 99 100 98 93
10 20 28 31 15 16 26 26 12 5 16 26 27 27 29 29 32 35 38 44 48 47 47 46 45 45 41 33 26 18 12 13 18 21 30 36 39 45 45 53 67 84 99 104 104 103 103 102 100
14 15 12 10 13 15 10 13 19 22 14 18 21 22 24 25 28 32 35 36 40 43 42 42 43 47 45 41 36 31 26 21 18 16 25 28 32 39 40 43 52 61 80 97 103 106 108 106 106
12 5 6 11 15 29 29 18 20 5 27 28 24 24 22 21 21 23 23 24 27 31 35 39 42 40 40 40 41 39 36 33 26 24 24 24 29 34 40 43 43 50 55 70 91 104 107 108 108
8 9 10 7 16 10 19 41 38 28 25 22 22 20 18 18 21 24 24 25 27 29 33 39 42 41 38 35 35 37 41 42 40 36 30 29 30 34 40 44 48 48 49 56 65 87 104 108 109
11 8 9 9 12 29 27 36 25 17 10 14 12 17 20 22 24 23 24 25 27 30 34 42 47 44 42 39 35 33 31 33 37 43 44 40 34 34 38 43 46 49 49 53 60 69 83 98 108
7 9 9 7 10 20 25 17 10 21 10 16 9 9 13 16 19 20 20 21 28 32 37 38 41 46 50 48 43 38 38 38 36 36 38 43 47 47 40 37 43 47 52 51 58 69 72 80 92
27 32 33 18 16 16 22 25 16 19 15 6 4 8 10 11 13 17 20 23 25 33 38 43 43 44 47 48 48 49 46 42 41 41 40 42 43 44 46 47 42 44 50 52 56 65 71 77 84
Wind_Direction_850mb
298 315 326 299 265 228 272 77 347 335 309 22 314 306 334 308 308 358 3 297 206 194 201 200 201 199 197 196 198 201 207 212 213 214 217 218 213 218 225 227 220 231 254 286 288 284 288 294 232
295 314 304 285 263 273 73 61 25 22 357 315 289 276 277 304 325 283 327 278 218 197 198 202 205 204 203 201 203 205 209 212 216 224 234 240 239 241 235 226 223 238 250 262 273 274 268 269 273
310 259 275 289 291 340 356 55 7 334 314 278 296 263 302 311 300 275 279 286 219 202 198 205 209 208 207 207 207 211 216 220 226 232 242 246 248 242 237 233 232 241 258 268 271 268 271 271 264
266 236 230 258 301 322 290 321 339 314 110 232 282 274 238 257 271 249 284 284 215 208 203 212 214 214 216 216 215 216 217 220 225 231 218 227 236 230 227 236 243 247 258 265 271 277 278 273 267
265 246 260 251 283 282 307 298 307 293 286 251 237 287 283 289 279 277 273 266 227 215 209 218 215 218 221 221 221 219 215 218 225 230 227 238 242 239 240 245 249 257 261 264 265 269 272 271 267
239 285 248 270 334 313 315 343 275 273 284 255 250 273 287 268 286 308 293 256 233 221 221 220 216 216 221 226 224 221 218 213 222 228 236 246 249 244 238 242 244 248 253 257 263 259 247 242 242
284 269 284 297 291 292 272 237 240 308 285 274 262 276 287 263 263 288 300 268 243 225 227 222 220 218 220 222 224 224 216 215 223 231 235 248 246 239 235 233 232 237 243 246 246 239 234 237 245
273 270 270 255 294 298 168 211 274 281 302 269 252 259 274 202 275 294 281 267 250 234 235 226 225 222 221 220 220 222 219 219 224 233 235 243 241 238 236 233 232 230 229 223 220 224 228 235 249
230 250 261 267 267 284 170 268 198 271 273 266 256 270 294 285 287 285 274 260 252 243 237 232 229 227 224 223 224 223 223 223 226 231 235 236 234 229 229 226 227 226 225 222 219 220 226 236 243
230 250 275 286 283 273 294 281 291 289 272 273 268 267 277 277 281 276 267 260 255 250 247 238 234 231 227 224 226 227 225 226 228 232 235 231 229 230 227 222 222 221 219 218 218 219 222 226 231
222 248 269 284 277 282 283 284 277 263 272 272 283 289 292 284 271 273 266 254 248 259 247 245 238 234 231 228 229 232 229 228 228 228 230 229 227 227 224 223 219 219 215 215 215 217 221 225 229
262 256 270 281 290 282 272 285 271 262 265 280 281 286 285 275 269 267 267 260 251 242 245 247 241 237 234 232 232 234 232 235 231 231 228 230 226 227 225 224 222 221 216 219 218 220 223 225 230
247 272 275 279 275 270 277 271 268 270 281 283 282 280 274 271 271 263 261 267 261 250 241 243 245 240 238 236 234 235 232 232 238 230 230 230 228 230 228 226 226 224 220 221 220 222 224 226 228
295 293 281 278 273 267 262 273 282 271 282 285 282 282 279 273 273 267 258 270 276 267 253 247 245 244 240 240 238 239 237 236 236 234 235 236 233 233 231 229 227 226 225 224 224 224 224 225 226
280 293 293 280 268 257 270 272 248 277 272 275 289 289 291 287 282 274 276 273 269 272 268 250 250 249 244 244 245 240 240 237 238 237 237 238 234 235 235 233 232 230 228 225 224 224 225 227 227
272 272 277 289 3 206 195 277 293 313 321 289 281 289 290 287 283 284 282 275 269 258 257 255 250 249 251 249 248 244 241 243 240 240 240 240 236 235 235 235 234 233 232 229 228 227 226 226 227
249 269 281 292 302 292 212 277 290 304 299 289 285 287 293 293 294 295 291 286 277 266 253 257 253 252 251 248 242 243 242 242 242 240 241 241 239 235 236 236 236 235 234 232 230 229 228 227 227
278 283 294 285 282 248 260 262 277 284 284 277 276 287 296 297 311 341 334 324 307 273 255 240 245 253 251 247 242 240 242 242 241 241 241 242 241 238 237 238 237 236 234 231 230 230 227 227 227
277 284 282 283 288 291 289 291 291 291 285 270 282 288 294 314 27 37 28 24 25 11 343 260 245 249 246 241 236 238 241 244 242 239 241 241 244 242 238 238 238 238 238 237 235 232 229 226 226
281 280 281 284 281 290 295 290 295 280 276 280 286 296 323 72 53 38 35 39 35 28 14 12 281 245 255 235 241 237 239 243 248 247 243 242 242 243 240 238 238 241 240 238 236 233 230 225 228
266 275 284 291 305 300 289 285 266 268 278 303 349 93 84 70 56 44 43 47 53 47 38 30 29 32 261 258 248 244 229 240 244 248 246 245 245 247 246 243 241 242 241 241 240 236 234 232 230
282 294 309 306 311 297 18 288 301 277 270 94 75 76 63 56 58 53 50 46 46 51 56 55 53 50 48 34 308 263 258 263 261 259 257 254 256 253 251 249 244 244 243 241 241 239 238 234 235
279 347 316 299 278 284 273 254 277 264 250 114 92 65 59 56 44 40 42 44 46 46 47 47 46 47 45 44 52 5 312 288 261 260 269 269 268 267 261 258 251 245 244 243 243 241 237 236 237
315 286 276 261 273 261 266 245 286 42 33 100 94 77 67 52 47 46 35 34 37 39 37 35 36 39 38 32 22 17 347 314 292 274 283 281 284 278 270 264 257 251 248 246 245 244 241 239 238
231 257 291 268 215 264 91 330 256 302 97 126 122 99 83 70 57 43 43 36 31 34 38 36 36 33 28 27 23 16 359 340 316 301 297 292 286 287 286 276 272 264 256 251 248 246 245 242 239
194 305 221 275 284 301 311 270 269 98 110 110 109 102 87 67 53 50 39 35 29 24 23 23 33 30 21 16 13 12 11 4 345 326 309 290 280 285 289 284 277 275 269 262 255 250 248 246 244
117 218 225 250 250 265 254 267 271 239 136 130 118 100 78 63 50 31 26 23 23 18 17 21 22 19 15 13 6 3 359 357 358 350 336 318 304 291 281 279 283 278 274 268 261 256 252 249 248
217 341 233 177 263 266 262 269 257 166 176 130 74 58 37 25 31 30 24 19 20 18 15 11 12 8 9 8 4 360 355 350 348 346 347 347 332 313 299 291 285 282 277 270 266 260 256 252 251
225 239 219 292 239 258 268 254 234 354 11 124 90 37 19 13 17 15 15 18 4 5 8 8 6 1 0 0 0 359 356 354 350 343 336 333 335 337 329 308 295 288 283 275 271 266 262 258 254
278 266 261 242 232 223 254 264 3 49 91 65 352 341 357 3 10 14 10 12 12 2 356 360 356 352 354 356 355 353 352 352 348 345 344 338 330 324 324 328 324 304 293 283 274 270 268 262 258